TimeCDT,TemperatureF,Dew PointF,Humidity,Sea Level PressureIn,VisibilityMPH,Wind Direction,Wind SpeedMPH,Gust SpeedMPH,PrecipitationIn,Events,Conditions,WindDirDegrees,DateUTC
12:53 AM,59.0,42.1,53,30.11,10.0,East,9.2,-,N/A,,Clear,100,2013-03-12 05:53:00
1:53 AM,59.0,43.0,55,30.10,10.0,East,9.2,-,N/A,,Clear,100,2013-03-12 06:53:00
2:53 AM,57.9,43.0,58,30.09,10.0,ESE,11.5,-,N/A,,Clear,110,2013-03-12 07:53:00
3:53 AM,59.0,43.0,55,30.09,10.0,East,11.5,-,N/A,,Clear,100,2013-03-12 08:53:00
4:53 AM,57.9,44.1,60,30.09,10.0,East,9.2,-,N/A,,Clear,100,2013-03-12 09:53:00
5:53 AM,55.0,42.1,62,30.11,10.0,WSW,5.8,-,N/A,,Clear,240,2013-03-12 10:53:00
6:53 AM,46.9,42.1,83,30.13,10.0,Calm,Calm,-,N/A,,Clear,0,2013-03-12 11:53:00
7:53 AM,45.0,42.1,90,30.14,10.0,WSW,3.5,-,N/A,,Clear,250,2013-03-12 12:53:00
8:53 AM,55.9,50.0,80,30.18,10.0,Calm,Calm,-,N/A,,Clear,0,2013-03-12 13:53:00
9:53 AM,63.0,46.9,56,30.19,10.0,Calm,Calm,-,N/A,,Clear,0,2013-03-12 14:53:00
10:53 AM,66.0,45.0,47,30.21,10.0,ESE,6.9,-,N/A,,Clear,120,2013-03-12 15:53:00
11:53 AM,68.0,42.1,39,30.20,10.0,ESE,10.4,-,N/A,,Clear,120,2013-03-12 16:53:00
12:53 PM,70.0,43.0,38,30.19,10.0,SE,10.4,-,N/A,,Clear,130,2013-03-12 17:53:00
1:53 PM,72.0,43.0,35,30.17,10.0,SE,12.7,-,N/A,,Clear,130,2013-03-12 18:53:00
2:53 PM,71.1,45.0,39,30.15,10.0,ESE,11.5,-,N/A,,Clear,120,2013-03-12 19:53:00
3:53 PM,71.1,44.1,38,30.13,10.0,SE,11.5,-,N/A,,Clear,130,2013-03-12 20:53:00
4:53 PM,70.0,39.0,32,30.13,10.0,SE,12.7,-,N/A,,Clear,130,2013-03-12 21:53:00
5:53 PM,68.0,43.0,40,30.12,10.0,ESE,12.7,-,N/A,,Clear,120,2013-03-12 22:53:00
6:53 PM,64.9,46.9,52,30.14,10.0,ESE,13.8,-,N/A,,Clear,120,2013-03-12 23:53:00
7:53 PM,63.0,50.0,63,30.16,10.0,SE,12.7,-,N/A,,Clear,130,2013-03-13 00:53:00
8:53 PM,63.0,51.1,65,30.19,10.0,ESE,11.5,-,N/A,,Clear,120,2013-03-13 01:53:00
9:53 PM,62.1,52.0,70,30.21,10.0,SE,11.5,-,N/A,,Unknown,130,2013-03-13 02:53:00
10:53 PM,62.1,53.1,72,30.23,10.0,SE,12.7,-,N/A,,Clear,140,2013-03-13 03:53:00
11:53 PM,62.1,53.1,72,30.24,10.0,SSE,11.5,-,N/A,,Clear,150,2013-03-13 04:53:00